Theta_e
309 309 309 309 309 309 309 309 309 309 309 309 310 309 309 310 310 310 310 310 310 310 311 311 311 312 312 312 312 312 313 313 314 314 314 314 315 315 314 313 314 314 313 313 313 314 314 314 315 315 316 316 316 317 317 319 318 318 327 324 321 327 326 324 326 319 317 320 317 315 315 314 315 317 315 316 316 316 316 315 316 315 315 315 315 315 315 315
309 309 309 309 309 309 309 310 310 309 310 310 310 310 310 310 310 310 310 311 311 311 311 311 311 311 311 312 312 312 314 314 314 314 314 314 315 314 314 314 314 314 314 314 313 313 314 315 316 315 316 316 316 317 317 319 317 321 327 320 324 334 325 319 321 316 315 318 315 315 315 313 315 315 315 316 315 315 315 315 315 315 315 315 315 315 315 315
310 309 309 309 309 309 309 310 310 309 310 310 310 310 310 310 310 310 310 310 311 311 311 311 311 311 311 311 312 313 313 313 314 314 314 313 314 314 314 314 314 315 315 314 314 313 314 315 316 315 316 315 316 317 318 319 318 318 319 322 333 328 317 315 316 316 316 316 314 314 314 313 314 314 314 314 314 315 315 315 315 315 316 315 315 315 315 315
310 310 310 309 309 309 310 310 310 310 310 310 310 310 310 310 310 310 310 311 311 311 311 311 311 311 311 311 311 312 312 314 315 314 314 314 314 314 314 315 314 315 315 315 314 313 314 315 315 315 316 316 316 317 318 318 318 316 318 326 329 316 315 318 316 317 317 315 314 313 314 314 315 315 314 314 315 316 315 315 315 315 315 315 315 315 315 315
311 310 310 310 310 310 310 310 310 310 310 310 310 310 310 310 310 310 310 310 311 311 311 311 311 311 311 311 311 312 313 316 317 314 314 314 314 314 315 315 315 315 315 315 314 314 314 315 315 315 316 315 315 316 316 317 317 317 319 321 319 313 316 318 316 318 317 315 314 313 314 315 315 315 314 314 316 317 315 316 316 315 315 315 315 315 315 314
311 311 310 310 310 310 310 310 310 309 310 310 310 310 310 310 310 310 310 310 310 310 311 310 310 310 311 311 312 312 313 316 316 314 315 314 315 316 316 315 315 316 315 314 313 313 314 315 315 315 315 314 314 315 315 316 317 319 320 316 316 316 316 317 317 317 317 316 314 314 315 314 314 314 314 314 314 316 316 316 316 315 314 314 314 314 314 314
311 311 310 310 310 310 310 309 310 309 309 309 309 309 309 310 310 310 310 310 310 310 310 310 311 311 311 312 313 314 315 315 314 315 315 315 315 315 314 315 315 316 315 314 313 313 314 315 315 314 314 313 313 314 314 314 315 319 321 316 316 316 314 316 316 315 316 315 315 314 313 312 313 314 314 313 314 316 315 316 315 314 314 314 315 314 314 314
310 310 310 310 310 310 309 310 309 309 309 309 309 309 309 310 309 310 310 310 310 311 311 311 312 312 313 314 315 317 317 316 315 316 316 316 316 315 315 315 315 316 314 313 313 313 314 314 315 314 313 313 312 313 313 313 314 317 320 316 314 314 314 315 314 314 315 314 315 313 312 312 313 313 312 313 316 316 315 315 315 314 314 314 314 314 314 314
308 308 309 309 309 309 309 309 309 309 309 309 309 309 309 310 310 310 310 311 312 312 313 313 314 315 316 317 317 318 318 317 318 319 319 318 318 317 317 316 316 316 314 313 313 313 314 313 314 314 313 313 313 313 312 314 315 315 316 314 312 313 313 314 314 314 314 313 313 312 312 312 313 313 312 315 316 316 315 315 315 314 314 315 314 314 314 314
307 308 308 308 308 308 308 308 309 309 309 309 310 310 310 311 311 312 312 313 314 315 316 316 317 317 318 318 317 318 318 319 320 320 320 320 319 319 318 317 316 315 313 314 314 313 314 314 314 315 314 314 314 313 312 314 315 313 312 312 312 313 313 313 313 314 313 312 312 313 313 312 311 312 315 317 316 315 314 313 313 314 314 314 314 314 314 314
308 308 308 308 309 309 309 309 310 310 310 311 312 312 313 314 315 315 316 317 317 317 317 317 317 317 316 315 316 317 318 319 319 319 319 319 319 319 318 318 316 314 314 315 315 315 314 314 315 315 315 315 313 313 313 313 313 312 312 313 312 311 312 313 313 313 313 313 313 312 313 312 310 313 317 317 316 314 313 312 312 313 313 313 313 313 313 313
310 310 310 310 311 311 311 312 313 314 314 315 316 317 317 317 318 317 317 317 317 317 316 316 315 315 314 313 314 317 318 318 318 317 317 316 316 318 318 317 314 314 315 317 317 317 315 314 315 315 315 314 314 314 313 313 313 313 312 314 315 313 314 313 312 312 312 313 313 312 314 317 315 315 318 316 315 314 312 311 311 312 312 312 312 313 313 313
313 313 314 315 315 316 316 317 317 318 318 318 318 318 318 317 317 316 316 316 316 315 315 315 314 314 314 314 316 317 318 317 317 317 316 316 315 316 317 315 314 315 316 317 318 317 316 315 315 316 315 314 314 314 314 313 312 314 312 312 315 315 318 314 310 311 311 313 313 312 317 325 324 318 316 315 313 314 312 311 311 312 312 312 312 312 312 313
316 317 318 318 319 319 319 318 318 318 317 317 316 316 316 315 315 315 315 315 315 315 314 314 314 315 315 316 317 317 317 317 317 317 316 316 315 315 316 315 315 316 317 316 316 316 315 315 315 316 315 315 314 313 315 314 314 315 311 314 316 315 322 319 310 311 313 313 312 312 317 324 324 317 314 313 312 314 312 310 311 312 312 311 311 312 312 311
318 318 318 319 319 318 317 317 316 316 315 315 315 315 314 314 314 314 314 314 314 314 314 315 315 316 315 315 317 317 317 317 316 316 316 316 315 315 315 315 316 315 316 315 316 315 315 316 316 316 315 314 315 316 319 319 322 321 312 320 323 315 322 322 310 310 314 313 310 312 318 320 318 315 314 312 312 315 311 309 311 311 311 310 310 310 310 310
317 317 317 317 316 316 315 315 315 315 314 314 314 314 314 314 314 313 314 314 314 315 315 316 316 316 315 315 316 316 317 317 317 316 316 316 315 315 315 315 315 315 315 314 315 315 315 316 315 315 314 313 317 324 325 321 324 325 315 320 326 318 318 319 312 309 310 313 311 311 316 318 316 314 314 312 312 314 310 309 310 309 309 308 308 309 308 309
316 316 315 315 315 314 314 314 314 314 313 313 313 313 313 313 313 313 314 315 316 317 316 317 317 316 316 316 316 316 317 317 317 317 316 316 315 315 315 315 315 314 315 314 314 314 314 315 314 315 314 311 315 321 323 319 321 325 318 316 321 318 315 317 317 312 309 313 314 313 314 316 316 313 312 312 311 311 309 308 308 306 306 306 306 307 307 308
315 314 314 314 314 313 313 313 313 313 313 313 312 312 312 313 313 314 316 317 318 317 316 316 316 317 318 316 316 316 317 317 317 317 316 315 315 315 315 315 314 314 314 313 313 314 314 312 313 316 315 311 314 316 318 320 322 325 321 317 319 318 315 316 317 314 312 315 315 315 316 316 318 313 309 311 310 310 309 306 305 305 305 305 305 306 306 307
313 313 313 313 313 313 313 313 312 313 312 312 312 312 313 314 315 316 318 318 317 317 318 317 316 318 319 316 316 316 316 317 317 316 315 315 314 314 314 314 314 313 312 313 313 312 312 312 313 316 316 314 315 314 316 318 320 322 320 319 319 319 317 316 315 313 311 314 315 316 316 318 319 314 310 309 309 308 307 305 305 304 304 304 304 304 305 305
312 312 312 312 312 312 313 312 312 312 312 312 312 314 316 317 318 319 318 318 317 318 319 318 317 317 317 316 316 316 317 317 317 316 315 315 314 314 314 313 313 312 312 317 317 311 311 315 316 317 316 315 314 313 313 314 314 316 316 316 317 316 316 314 315 314 310 313 319 317 316 318 317 314 309 307 308 307 305 304 304 303 303 303 303 303 303 304
312 312 312 312 312 312 312 312 312 312 312 313 314 317 318 318 320 320 319 319 319 318 318 318 318 318 318 317 317 317 318 317 317 316 315 315 314 314 314 313 314 315 313 314 314 310 311 316 317 317 316 314 313 312 312 312 312 312 313 315 315 314 314 313 314 314 310 312 319 317 316 318 315 312 307 305 307 306 304 304 303 302 302 302 302 302 302 302
312 312 312 312 312 312 312 312 312 312 313 314 316 318 319 319 320 320 319 320 320 320 320 319 319 319 319 318 318 318 317 318 317 316 315 314 314 314 314 314 317 318 313 311 314 313 313 316 316 314 312 311 312 312 311 312 312 312 313 313 315 316 316 317 317 315 312 313 320 318 315 316 314 309 306 304 305 304 303 303 302 302 302 301 301 301 301 302
313 313 312 312 312 312 312 313 313 314 315 316 318 319 320 321 321 321 321 321 321 321 321 321 320 320 320 319 319 318 317 317 318 317 315 314 314 315 314 314 317 318 314 314 317 317 317 319 315 311 310 311 313 313 312 313 313 314 315 315 317 317 317 321 321 317 314 312 316 317 314 316 312 308 306 303 303 303 302 302 301 301 301 300 300 300 301 301
313 313 312 312 312 312 313 314 314 315 316 317 319 320 321 322 322 323 321 319 320 321 320 321 321 320 321 320 319 319 318 317 318 317 317 315 314 314 313 313 315 316 315 315 316 317 319 318 312 310 312 313 313 314 313 314 315 318 318 316 317 317 316 319 319 317 317 315 314 314 316 321 317 312 310 305 303 303 302 302 301 300 300 300 300 300 300 301
314 313 313 312 313 315 315 315 316 317 317 318 320 321 322 323 322 321 320 321 322 320 319 320 320 320 320 319 320 319 317 318 318 318 317 316 315 314 313 312 314 316 315 314 314 315 316 313 311 314 315 313 313 315 316 316 316 320 321 318 316 316 317 318 317 316 319 322 316 312 320 329 323 316 312 306 305 304 302 301 300 300 299 299 299 299 299 300
315 314 314 314 315 316 317 318 318 318 319 320 320 321 322 322 321 320 320 324 325 321 319 320 320 320 318 318 318 317 319 318 316 318 318 316 315 315 314 313 313 315 315 313 313 315 315 312 312 317 318 315 315 316 317 316 317 320 321 319 316 314 315 318 317 316 322 324 315 310 317 326 325 321 314 308 307 305 302 301 300 299 299 298 298 298 299 300
316 315 315 316 317 317 318 319 320 319 320 321 321 321 321 322 321 319 322 328 327 322 320 318 317 318 316 316 316 318 322 319 314 316 315 315 314 313 316 316 313 313 312 312 316 318 316 314 313 315 317 318 317 317 318 316 319 323 319 318 320 316 317 320 318 318 321 319 316 315 315 317 320 320 313 308 308 305 303 302 300 299 298 298 298 298 298 299
316 316 316 317 317 318 319 320 321 320 321 322 322 322 322 322 320 319 326 332 327 319 318 316 314 314 314 315 316 316 318 315 315 315 313 313 314 312 315 316 315 316 311 312 322 319 314 316 317 315 316 317 317 319 318 316 320 324 317 316 320 318 319 320 317 318 317 313 319 323 316 315 320 319 310 307 310 308 305 303 301 299 298 297 297 297 298 299
316 316 317 317 318 319 319 320 321 321 322 323 323 323 322 322 320 320 325 330 324 317 316 315 313 312 313 314 314 312 312 311 314 314 311 313 313 312 314 313 313 316 310 310 322 319 312 312 314 317 318 317 319 319 316 318 318 315 312 315 319 318 319 319 317 319 316 314 320 322 317 317 323 322 312 308 312 312 306 303 301 299 298 297 297 297 298 298
318 317 317 317 318 319 319 319 320 321 323 323 323 324 322 322 322 324 328 328 324 318 313 312 312 310 311 313 312 310 309 310 311 311 311 312 312 310 312 311 311 315 315 313 318 317 311 308 309 314 316 315 317 313 309 313 312 308 313 319 320 320 319 319 319 318 316 319 321 319 317 317 322 325 317 311 311 310 306 303 301 299 298 297 297 297 297 298
319 319 318 317 318 319 319 320 319 320 322 323 324 323 323 323 323 328 329 324 323 318 311 311 311 309 312 315 314 310 309 309 309 311 312 311 311 310 311 311 311 317 321 318 318 317 313 312 311 311 311 310 315 313 308 308 308 310 319 322 320 321 319 319 321 318 319 325 322 315 313 314 319 322 316 310 306 305 306 304 301 299 297 297 297 297 297 298
320 321 321 319 318 318 319 320 319 319 321 322 324 323 323 323 324 328 327 322 324 321 314 314 312 310 313 314 314 312 310 311 309 311 314 313 314 313 313 315 316 320 322 319 320 320 318 317 313 310 309 311 318 319 313 312 313 316 320 320 320 322 321 322 323 320 321 321 316 313 313 313 319 318 311 308 305 302 303 302 300 299 297 297 297 296 297 297
322 322 322 321 320 319 319 320 319 320 320 322 324 322 322 325 326 327 325 325 325 318 315 317 315 313 314 314 314 312 311 313 310 310 313 312 314 314 313 316 316 319 321 318 318 319 322 321 314 312 312 311 316 319 317 318 316 315 317 320 322 322 323 327 324 319 320 318 313 313 315 317 321 316 306 303 301 299 300 301 300 299 298 298 297 297 297 297
322 323 323 322 322 321 321 320 320 320 321 322 322 321 322 326 326 325 324 325 324 319 318 318 315 314 315 316 318 314 312 314 311 311 313 312 314 316 315 314 313 316 320 318 317 318 323 325 320 317 315 313 314 315 319 322 316 313 316 318 320 323 326 328 326 323 322 320 314 312 315 322 325 314 302 300 299 298 300 300 299 299 298 298 297 297 298 298
321 322 323 323 323 322 322 322 321 321 322 321 321 322 324 325 325 326 325 325 324 322 320 319 316 314 315 318 319 314 314 317 313 312 315 314 316 320 320 316 313 316 321 320 319 318 319 325 324 315 311 312 313 311 313 320 317 313 313 315 317 321 323 321 318 318 318 318 317 315 318 320 316 306 300 299 298 297 298 298 298 298 297 297 297 297 297 298
321 321 322 322 322 322 322 323 322 321 321 321 321 323 323 323 324 326 324 322 323 321 320 321 320 317 317 320 319 315 315 319 316 313 315 316 317 319 320 320 314 313 317 319 321 320 319 324 321 312 309 310 311 310 309 314 319 314 311 317 316 314 319 319 314 311 312 316 317 316 318 316 311 306 302 300 300 299 298 297 297 297 297 297 297 297 297 297
322 321 321 321 321 322 322 322 321 321 321 320 321 323 321 319 319 321 320 318 319 320 320 322 322 320 320 320 320 319 317 319 317 314 317 318 317 317 319 320 314 312 315 317 321 322 321 324 320 314 315 310 306 309 308 307 313 316 316 317 313 310 317 319 316 315 314 316 317 315 316 317 316 313 304 300 301 301 299 297 296 296 296 297 297 297 297 297
322 321 320 320 321 321 321 320 320 320 319 319 322 322 321 319 316 316 318 316 317 320 322 324 322 321 321 321 322 321 319 320 318 316 320 319 318 317 319 319 314 311 312 313 318 320 317 322 320 312 314 313 307 311 313 308 308 314 315 312 312 316 319 316 316 319 317 317 319 317 312 313 316 315 311 308 305 301 300 299 297 297 296 296 297 297 297 296
320 319 318 319 320 319 320 319 318 319 318 320 323 322 320 319 316 315 316 316 318 321 323 324 322 321 322 322 323 321 319 320 318 317 320 319 318 317 315 316 315 311 310 312 317 319 315 319 321 313 311 313 311 313 318 315 308 308 310 309 312 317 319 317 316 317 318 317 319 318 313 314 316 315 318 316 306 300 300 300 298 297 296 297 298 297 296 296
317 317 317 318 319 318 318 318 317 318 318 319 321 319 316 317 316 315 316 316 318 320 321 322 322 322 322 321 321 321 320 321 318 318 320 319 319 317 313 315 317 312 310 310 313 317 315 316 319 316 311 312 315 316 316 316 313 312 313 313 314 313 314 316 315 315 319 319 320 319 315 318 319 312 313 313 305 300 300 299 299 297 297 298 298 298 297 297
316 316 315 316 318 318 317 318 317 317 318 318 317 316 315 316 316 316 316 316 317 318 318 320 321 321 321 321 322 321 321 321 319 319 321 319 319 318 314 313 315 313 312 312 314 316 317 317 319 318 315 315 319 316 311 312 314 314 314 315 315 314 315 317 315 314 316 317 320 319 314 317 316 308 307 308 304 301 299 298 298 298 298 299 299 299 299 298
315 315 314 315 317 317 317 317 317 316 318 318 316 315 315 315 316 316 316 316 317 317 316 318 319 320 320 321 322 321 321 321 321 320 320 319 319 319 314 310 310 312 315 317 317 314 314 317 318 318 318 317 316 311 306 308 313 313 314 315 316 315 316 317 317 316 316 314 316 317 315 315 310 303 303 304 301 300 299 299 298 298 299 300 299 299 299 299
312 313 313 314 316 317 317 317 317 316 317 317 315 315 315 315 316 316 316 316 317 317 317 318 318 318 319 319 319 320 320 320 320 320 321 320 318 315 310 309 310 310 314 319 316 311 311 316 317 317 318 315 313 312 309 308 311 313 314 314 315 316 316 316 316 317 318 316 316 316 316 315 307 300 299 299 299 299 299 299 299 299 300 300 300 300 299 299
309 311 311 312 314 316 316 317 317 317 316 315 315 315 315 315 316 316 316 316 317 317 318 318 317 317 318 317 318 319 319 319 318 318 319 319 316 310 307 309 310 310 313 317 315 313 314 316 317 317 318 316 315 317 314 312 314 315 315 313 313 314 315 313 313 314 316 316 316 315 315 314 309 302 300 300 299 298 298 299 300 300 300 301 301 300 300 299
307 309 309 311 313 314 314 315 315 316 316 315 315 315 315 315 315 315 316 316 315 315 316 316 316 316 317 317 317 317 316 317 318 316 316 317 314 309 306 308 308 308 310 312 311 312 315 317 316 316 317 318 318 317 315 315 315 314 314 314 312 312 314 314 314 314 314 315 315 314 314 314 310 305 304 303 302 301 300 299 300 300 301 301 300 300 300 300
306 308 308 310 312 312 312 313 312 313 315 315 315 315 315 315 314 313 315 316 315 313 312 313 314 314 316 316 316 316 315 315 316 315 314 317 316 309 305 306 307 307 308 309 309 312 315 315 314 315 316 316 317 316 313 313 315 314 314 314 313 312 311 313 314 314 313 314 314 313 312 313 312 308 307 306 306 305 302 299 299 300 301 301 300 300 301 300
305 307 308 309 310 310 311 311 311 311 312 314 315 314 314 315 314 313 314 315 315 314 312 312 313 315 315 315 315 316 315 315 315 314 314 316 315 309 304 305 305 306 307 307 308 311 314 314 313 313 314 313 312 313 310 310 314 315 314 314 313 311 310 312 312 311 311 313 313 312 310 311 312 310 309 310 309 306 302 299 300 301 301 301 301 301 300 299
304 305 306 307 309 309 310 311 311 311 311 311 313 314 314 315 314 314 314 312 312 314 314 314 313 314 315 315 315 315 315 315 314 313 313 313 313 310 307 305 305 305 306 305 305 309 314 314 311 311 312 310 309 309 308 308 310 311 312 312 311 309 309 310 309 309 310 311 311 310 309 309 309 308 309 309 306 304 303 302 302 302 302 302 302 301 300 300
302 303 304 305 307 307 308 310 310 311 311 310 311 312 312 313 313 313 312 312 312 312 313 315 314 313 314 314 314 314 314 315 314 313 313 313 312 312 311 310 307 304 304 306 305 305 311 314 309 308 310 308 305 305 305 305 306 307 308 308 308 307 306 306 306 307 307 307 308 307 307 307 306 305 306 305 303 302 303 303 303 303 302 302 302 302 302 301
301 302 302 303 303 303 305 309 309 310 311 310 310 311 309 310 311 310 310 312 313 312 312 314 314 313 313 313 313 313 313 313 314 313 313 313 311 310 311 312 309 304 304 307 306 305 308 311 307 307 309 306 302 302 303 303 304 305 306 306 305 304 303 303 304 304 303 304 304 304 304 304 303 302 302 302 301 302 302 302 303 303 303 303 303 302 303 302
300 301 300 301 303 303 304 307 308 309 311 310 310 310 309 309 309 309 309 309 310 311 312 312 313 312 312 312 311 312 311 311 312 312 311 312 311 309 310 310 308 307 307 306 306 306 307 307 305 307 310 307 301 300 302 301 301 302 303 303 302 302 303 303 302 303 303 303 303 302 302 303 301 299 299 299 298 299 300 301 301 302 302 302 302 302 302 301
299 300 299 300 303 303 304 306 307 307 308 309 309 309 309 308 307 307 309 307 306 308 309 310 310 311 310 310 310 310 309 308 308 307 307 308 307 305 306 305 305 307 307 305 306 306 306 307 307 307 309 306 299 299 301 302 303 303 302 302 301 301 301 301 301 302 301 301 302 301 301 301 299 298 299 299 297 296 297 298 299 299 299 299 300 300 300 300
Wind_Speed
8 8 8 8 8 7 7 7 7 7 6 6 6 6 5 5 5 5 5 5 5 5 5 6 7 7 8 9 9 10 10 11 13 15 16 13 9 5 4 3 2 3 4 3 2 1 3 2 2 1 1 1 1 1 2 1 1 1 2 3 1 3 3 5 6 5 3 3 5 6 8 3 5 8 9 11 14 17 17 19 17 15 17 17 17 17 18 19
10 9 9 9 9 9 8 8 8 8 8 7 7 7 7 6 7 7 7 6 6 7 7 7 8 8 9 9 10 11 12 13 15 14 10 3 2 7 7 5 3 5 5 4 3 1 3 4 4 3 2 2 1 1 2 1 2 2 3 2 3 5 5 5 7 6 4 5 8 10 8 5 6 8 8 7 13 16 14 21 21 17 19 18 16 16 15 16
12 11 11 11 11 10 10 10 9 9 9 9 9 9 8 8 8 8 8 8 8 8 8 9 9 9 10 10 11 12 13 16 15 6 2 6 9 8 5 2 4 7 7 5 3 2 5 6 5 3 2 2 0 1 2 2 2 1 3 1 6 7 5 6 8 8 9 9 9 10 8 6 10 9 7 4 10 14 11 17 18 18 23 22 21 20 18 18
13 13 12 12 12 12 11 11 11 11 10 10 10 10 10 10 10 10 10 10 10 10 10 10 10 10 11 11 12 12 14 16 9 4 6 5 5 2 1 5 8 9 9 6 4 4 6 7 4 3 3 1 1 1 2 3 4 2 4 4 5 4 3 8 9 10 11 8 8 10 9 10 13 10 6 4 5 9 14 19 17 21 28 26 24 23 21 20
15 14 14 13 13 13 12 12 12 12 11 12 11 11 11 11 11 11 11 11 11 11 12 12 12 11 12 12 11 12 12 9 1 7 5 4 2 4 7 10 11 10 9 7 5 6 8 8 5 4 3 1 1 1 3 5 5 3 5 7 6 4 3 10 11 11 12 8 9 11 9 10 12 11 10 8 5 10 21 26 24 27 29 26 24 22 20 17
16 16 15 15 14 14 13 13 13 12 13 13 12 13 12 12 12 12 12 12 12 13 13 13 13 12 12 12 12 12 8 2 4 4 5 7 7 10 13 13 10 10 10 7 5 6 8 8 6 5 4 1 3 4 2 4 7 3 4 7 9 8 7 12 14 14 14 12 12 11 10 12 12 14 14 12 15 22 29 29 27 27 24 21 20 18 16 13
17 17 17 16 16 15 15 14 14 14 14 14 13 14 13 13 13 13 14 13 13 13 14 14 13 13 13 13 13 12 10 11 10 9 11 12 14 16 15 13 9 9 9 6 6 7 8 9 7 6 3 0 2 5 2 2 6 5 4 5 8 10 9 14 15 15 16 16 18 16 14 13 11 12 13 18 28 30 27 23 21 19 17 17 16 13 10 10
18 18 18 18 17 16 16 16 15 15 15 15 14 14 14 14 14 14 14 13 14 13 14 14 14 14 13 13 13 11 14 16 12 11 13 14 16 16 15 12 10 9 8 6 6 7 7 9 10 7 3 2 3 4 2 2 4 5 5 5 5 9 11 14 16 18 19 18 20 16 14 17 16 13 13 24 30 22 17 14 13 13 14 16 14 9 8 9
18 18 18 18 18 17 17 16 16 16 15 15 15 15 15 15 15 14 14 14 14 14 15 15 15 15 13 13 11 9 14 14 8 8 10 11 12 13 13 12 10 9 7 6 7 8 8 9 10 9 5 4 4 3 2 1 3 5 5 6 7 11 14 15 18 21 19 17 16 11 13 18 16 9 12 22 16 8 9 10 10 11 13 14 11 8 8 9
17 18 18 18 17 17 16 16 16 15 15 15 15 15 15 15 15 15 15 15 15 15 15 15 15 14 13 13 8 5 11 10 6 7 6 7 9 9 10 10 9 8 7 7 7 8 9 8 8 8 6 3 4 3 2 2 2 2 3 7 9 13 16 15 18 23 19 15 14 10 11 15 8 0 7 17 9 6 9 9 10 10 8 7 7 8 8 9
16 16 17 17 16 16 16 15 15 15 15 15 15 15 15 15 15 15 15 15 15 15 15 15 15 14 13 13 10 9 11 9 8 9 8 10 10 9 9 9 9 8 7 6 6 7 10 10 7 6 5 2 3 3 4 3 3 4 6 8 10 12 16 15 16 20 14 8 8 8 8 9 2 3 10 17 12 10 12 11 10 6 3 2 4 6 7 8
15 16 16 16 15 15 15 15 16 16 16 16 16 16 16 16 16 15 15 15 15 14 15 14 14 14 13 13 16 16 15 14 14 14 14 13 12 11 10 10 10 9 8 7 8 9 10 12 10 7 5 3 2 1 2 3 4 5 5 6 9 9 12 14 10 9 4 2 4 3 4 7 2 7 13 15 13 13 13 12 9 5 1 2 3 4 5 6
16 16 17 17 16 16 16 17 17 17 16 16 16 16 16 16 15 15 15 14 14 13 13 13 13 13 11 12 17 16 14 15 15 14 14 14 13 11 11 11 11 11 11 11 11 11 12 12 11 9 7 4 2 1 3 4 5 6 3 1 5 7 7 8 1 0 1 2 4 3 2 7 6 12 13 10 12 17 17 11 8 4 1 3 3 2 2 3
18 17 18 18 18 17 17 17 17 17 17 16 16 16 15 15 15 14 14 13 13 13 12 12 12 12 11 13 16 16 15 15 14 14 14 14 14 12 13 13 13 13 13 12 11 10 10 10 9 8 7 6 3 2 3 5 3 3 2 1 3 2 5 7 2 1 3 3 4 6 2 6 9 14 13 10 15 22 18 8 4 1 2 3 4 3 1 1
19 18 18 18 18 18 18 17 17 16 16 16 16 15 15 14 14 13 13 13 12 12 12 11 11 10 10 14 15 14 15 15 15 15 14 15 15 13 13 12 12 12 11 11 10 10 8 7 8 6 5 5 3 0 2 4 3 2 1 3 3 2 5 10 7 2 2 1 3 6 2 6 8 13 13 13 19 22 15 5 4 3 5 5 5 5 4 4
19 19 19 18 18 17 17 16 16 16 15 15 15 14 13 13 12 12 12 12 11 11 11 10 10 8 7 11 13 12 13 12 11 12 12 13 14 12 10 8 8 9 10 10 9 9 8 6 6 4 3 3 2 3 3 4 4 3 1 4 3 3 3 7 5 1 3 1 2 3 2 5 6 13 18 18 19 17 8 4 6 6 7 7 7 7 7 6
19 19 19 18 17 17 16 15 15 15 14 14 13 12 12 12 12 11 11 11 11 10 9 7 7 7 8 11 11 11 12 11 10 9 10 11 10 9 7 7 8 10 10 8 8 7 7 6 5 3 1 1 3 5 3 3 5 3 0 3 4 4 3 4 4 3 5 4 2 1 2 6 8 15 21 19 16 10 4 7 9 9 9 10 9 9 8 7
19 19 18 17 16 16 15 14 14 13 13 12 12 11 11 11 11 11 11 11 10 7 7 8 6 3 8 13 12 10 9 8 9 10 10 9 8 7 7 8 8 9 7 5 6 6 6 4 3 1 2 2 3 5 3 5 6 4 3 3 4 3 4 4 5 4 5 5 2 3 3 8 11 12 13 16 12 7 10 12 11 11 11 11 11 11 11 10
18 18 17 16 15 15 14 13 13 13 12 11 10 9 9 9 9 11 12 11 10 6 4 8 10 4 3 7 8 9 7 6 8 9 10 9 8 9 9 8 7 8 7 4 4 6 6 3 3 1 1 3 5 7 9 10 7 6 5 4 4 4 5 5 6 5 3 4 4 5 6 8 9 7 10 13 10 12 14 14 13 13 13 13 13 13 12 12
17 17 16 16 15 14 13 13 12 12 11 10 9 8 8 7 5 7 10 14 16 14 12 11 12 12 9 6 5 6 6 7 8 10 11 10 10 11 10 8 7 7 4 4 3 3 5 3 3 5 7 8 10 11 11 5 3 3 2 3 4 5 6 5 5 6 1 1 6 5 4 8 6 3 7 9 8 12 12 13 14 13 14 14 14 14 13 14
17 16 16 15 14 14 13 13 12 12 11 9 9 8 7 6 3 3 6 11 15 17 18 18 17 19 18 13 9 7 7 7 8 11 12 12 12 10 9 8 5 3 2 4 3 2 4 5 6 10 10 8 7 9 7 4 1 1 2 4 5 5 7 6 6 6 1 3 5 2 3 9 5 3 6 7 7 8 8 10 12 13 14 14 14 14 14 14
17 16 16 15 15 14 13 13 12 12 10 9 10 9 7 7 7 7 6 8 14 17 18 20 21 24 25 22 19 16 11 7 9 13 13 14 15 11 9 7 4 2 2 4 3 1 2 4 10 14 8 2 1 4 5 5 4 3 2 2 5 4 4 7 5 5 2 3 4 3 4 8 3 3 6 8 8 8 9 10 11 13 14 13 14 14 14 15
16 16 16 16 15 14 14 13 13 11 10 10 10 9 8 7 7 8 7 6 12 18 19 21 25 28 28 27 25 23 18 13 12 15 16 17 17 13 10 8 4 3 3 4 5 3 3 6 12 13 5 3 3 3 6 3 2 3 3 2 5 3 1 4 5 4 2 0 3 2 4 6 1 3 5 9 10 12 13 13 13 14 14 13 13 14 15 17
16 16 16 16 15 15 14 14 13 11 11 11 10 8 7 5 5 6 6 5 7 12 18 21 23 25 27 25 22 21 21 19 14 13 18 21 17 11 9 9 6 3 4 7 8 7 7 7 6 3 5 6 6 3 6 4 2 3 5 5 5 5 6 6 4 4 3 3 2 1 4 5 2 1 2 6 8 10 11 13 14 13 14 13 13 15 17 18
17 17 16 16 16 16 15 14 13 11 11 11 9 8 6 4 4 4 4 3 4 7 11 14 16 18 21 20 18 16 15 16 15 12 15 21 20 10 6 8 7 4 7 7 6 6 8 9 3 4 3 5 5 5 5 7 3 4 5 10 11 9 8 6 3 5 4 3 3 3 3 5 4 3 3 3 4 6 7 10 12 11 12 13 14 16 17 19
18 18 17 18 17 17 15 12 12 12 11 10 8 8 6 4 3 2 2 3 4 4 4 6 8 9 12 13 13 12 5 7 14 14 14 19 21 12 4 5 4 4 6 5 3 3 5 8 5 5 4 5 4 5 5 7 5 2 5 9 10 7 5 4 2 2 0 4 3 3 1 5 5 4 5 5 4 3 4 7 8 9 11 12 14 15 17 20
20 19 19 19 18 18 15 12 12 13 11 9 9 9 7 5 3 1 3 3 5 5 6 5 6 5 7 10 14 13 2 3 9 12 16 18 18 13 6 3 3 3 4 5 1 3 4 3 2 5 4 5 4 5 5 7 6 3 4 4 7 6 6 6 5 3 3 3 4 2 2 3 5 5 4 7 6 3 2 4 5 7 9 11 13 15 18 20
21 20 20 20 19 18 16 13 13 14 11 9 9 11 8 6 5 3 4 2 3 4 5 4 5 5 8 13 17 10 3 6 7 7 15 17 15 10 5 5 6 4 3 6 4 4 2 3 4 6 5 4 6 3 6 9 4 5 3 6 6 6 6 5 5 2 1 1 4 4 1 2 5 4 1 5 4 2 3 3 2 6 8 10 13 15 18 20
22 22 22 21 19 18 17 16 15 14 12 9 9 11 10 9 6 4 3 3 2 3 3 5 6 5 9 14 11 4 4 3 2 6 12 13 12 6 2 6 7 4 2 3 5 4 0 2 5 7 5 6 4 1 5 9 3 4 5 6 5 5 5 4 4 3 2 1 5 6 3 2 5 4 0 2 2 4 5 3 4 7 8 10 13 15 18 20
23 23 23 22 21 21 20 20 19 16 13 12 11 12 13 11 6 3 4 4 1 2 3 5 5 5 9 9 3 1 3 1 3 10 9 7 9 5 4 5 4 4 1 3 2 4 1 0 2 4 4 5 5 3 2 4 4 6 6 6 6 5 5 4 2 3 2 3 6 8 8 5 4 5 2 3 2 3 6 5 5 7 10 11 13 15 18 20
24 23 24 24 24 24 22 23 22 18 15 14 13 15 14 8 3 3 7 2 2 2 3 3 2 4 8 6 2 2 1 1 4 9 5 3 5 4 5 4 2 3 3 4 2 5 4 1 2 3 4 5 7 4 3 4 5 6 4 4 3 3 4 4 4 3 1 5 5 5 4 5 4 4 2 2 3 2 5 7 9 10 12 14 15 16 18 19
27 25 24 25 26 25 25 24 18 17 17 16 17 18 12 4 2 5 3 2 1 3 4 3 2 4 5 3 2 3 3 1 2 5 3 2 3 3 3 4 4 3 2 4 3 4 3 4 3 1 2 5 6 4 3 4 5 5 4 5 3 3 3 3 3 0 3 5 3 2 1 2 6 4 0 3 4 5 5 8 15 17 18 19 17 17 18 19
28 27 27 27 27 26 26 24 18 17 19 19 20 15 7 2 5 5 3 1 1 1 2 3 2 4 6 4 2 3 3 2 4 3 2 3 3 3 3 2 6 4 0 3 2 1 3 5 1 1 3 5 7 4 2 1 1 4 5 5 3 2 0 3 3 2 4 4 2 2 0 1 5 2 0 4 5 7 5 11 21 23 23 22 20 19 18 19
29 29 29 29 29 29 27 24 23 20 20 23 19 8 4 5 3 3 5 4 0 1 2 3 4 5 5 4 4 5 3 2 5 4 2 3 3 3 4 4 5 3 2 2 2 3 2 4 3 4 2 5 8 5 5 5 3 3 4 5 4 4 4 4 3 3 4 3 2 3 1 2 3 1 2 3 3 4 5 15 22 22 23 22 20 20 19 19
30 30 29 29 31 32 29 27 27 23 24 23 13 4 5 6 1 2 5 4 0 1 2 2 5 5 3 2 3 5 3 2 4 4 2 3 3 3 4 5 6 4 3 3 2 2 2 5 6 3 0 6 6 4 6 7 2 2 3 4 2 4 4 2 3 4 2 2 3 2 3 3 4 1 2 2 5 7 10 16 20 20 20 20 20 20 20 20
28 29 29 30 32 32 30 30 28 25 26 20 7 4 7 3 2 3 3 2 3 4 3 2 3 3 3 2 2 5 2 1 4 3 1 3 3 4 4 4 6 8 6 4 2 2 2 4 5 3 1 3 3 4 4 3 3 2 2 3 4 4 6 3 2 1 3 1 4 2 2 4 1 1 2 3 5 5 7 11 16 19 19 20 21 21 21 20
27 27 28 30 31 30 29 29 26 26 26 16 5 6 3 1 3 3 1 3 4 5 4 1 1 3 4 2 2 4 2 1 2 2 2 2 2 4 4 3 5 11 11 6 2 3 3 4 5 1 2 1 2 6 5 3 4 5 2 5 3 2 4 3 1 3 3 3 4 1 3 3 1 1 3 3 2 3 4 7 11 15 17 20 21 22 21 20
27 25 24 25 26 26 26 24 24 27 23 11 7 8 2 1 4 3 2 4 4 4 4 3 3 2 3 3 2 3 4 3 3 3 3 2 2 4 4 3 4 8 12 8 2 2 3 2 6 1 2 1 3 5 4 4 2 4 3 3 3 3 1 2 2 2 2 3 4 3 2 3 4 4 2 4 7 8 6 6 8 13 19 22 24 24 22 20
23 20 16 18 20 20 19 20 24 26 16 6 8 8 2 2 3 2 3 3 3 3 3 3 2 2 3 4 3 3 4 4 5 4 3 2 3 4 4 2 3 3 6 9 4 1 2 2 5 3 1 1 3 2 3 2 1 3 2 1 2 2 4 2 2 3 2 2 4 4 4 3 5 5 6 9 11 11 10 9 10 16 23 27 27 26 24 22
17 12 8 13 16 15 16 18 22 19 8 3 5 3 1 1 3 3 5 2 2 2 2 2 2 3 4 3 2 3 2 3 5 3 2 3 2 2 2 2 2 1 1 6 4 0 2 2 3 3 3 0 1 2 5 6 4 2 2 2 1 1 1 1 1 3 3 2 2 3 5 5 4 3 6 7 7 11 14 13 13 19 26 28 28 27 25 24
13 5 3 12 16 16 19 17 12 7 2 1 2 2 1 1 1 1 3 5 3 2 1 2 2 2 3 3 2 2 2 2 4 3 2 2 2 2 1 2 3 3 3 3 3 2 2 2 2 2 1 3 4 4 4 6 5 5 5 5 5 4 2 1 3 1 2 3 4 3 6 7 4 2 3 4 4 10 16 14 13 19 26 28 28 28 26 25
9 2 2 11 16 19 19 11 3 2 2 2 2 3 3 2 1 2 2 5 4 2 2 1 1 2 2 2 2 2 3 2 3 3 2 3 4 3 1 3 3 3 3 3 2 2 2 3 2 4 3 4 6 4 2 4 3 3 3 3 4 3 4 4 6 3 1 2 2 2 4 5 2 1 2 4 6 11 17 16 15 20 27 29 29 28 26 24
6 3 5 11 18 21 15 4 2 3 2 2 3 4 6 4 2 2 3 4 3 2 2 1 2 3 3 2 2 2 3 3 3 4 3 3 4 1 2 4 3 2 3 1 1 2 3 2 3 4 3 2 5 5 2 0 2 2 1 2 3 3 3 4 5 3 2 3 2 1 5 4 1 3 2 2 4 9 17 21 21 25 29 30 29 28 27 25
7 6 7 11 19 22 12 3 4 5 5 3 2 4 6 6 6 5 4 5 5 4 3 3 3 6 5 3 4 5 4 3 4 4 3 3 3 1 2 4 3 3 3 2 2 4 3 1 2 3 3 2 3 3 2 2 0 2 2 1 2 3 5 2 2 3 2 5 6 4 7 5 1 3 3 4 3 6 12 19 23 25 29 31 31 30 29 27
8 5 5 12 22 21 10 4 3 4 6 6 5 6 5 4 8 12 9 7 9 6 2 2 4 6 5 4 3 5 5 4 4 3 3 2 1 1 1 2 4 5 4 2 5 6 3 2 3 4 7 7 4 3 3 2 1 1 1 2 2 4 6 3 2 3 4 4 6 6 7 4 2 1 2 3 2 4 7 14 19 22 27 30 31 31 30 29
7 4 3 7 17 19 14 9 4 2 4 6 5 6 9 6 5 11 12 10 11 8 2 1 2 3 3 4 5 5 6 5 4 3 3 3 2 1 0 0 4 6 4 4 7 6 2 1 4 6 9 8 5 4 3 2 3 2 2 4 4 4 5 4 3 4 4 2 4 6 3 1 4 3 2 3 4 4 6 12 17 19 22 26 28 30 30 29
6 4 5 6 8 12 12 10 7 3 2 6 4 2 9 11 4 6 11 9 10 11 5 1 4 4 4 6 5 6 6 6 6 4 3 3 2 2 1 1 2 4 4 6 8 5 2 2 5 8 9 6 4 4 2 2 4 5 5 6 6 4 6 7 6 5 4 3 7 7 4 3 8 6 5 6 6 5 7 11 16 20 23 25 26 28 29 28
6 3 9 11 6 5 8 10 11 9 5 5 4 1 4 10 7 6 7 4 4 11 7 3 6 9 8 7 6 4 5 6 6 5 3 2 1 1 1 0 1 3 3 3 4 4 3 4 4 4 5 3 1 2 2 2 2 3 5 7 7 6 7 8 6 4 5 5 8 5 5 6 10 6 5 8 9 9 12 15 19 22 25 25 25 26 27 28
7 2 7 13 6 2 9 13 13 12 10 6 4 3 4 8 9 6 4 2 1 7 9 7 8 9 9 7 6 5 6 6 5 4 3 3 4 3 1 1 2 3 3 2 1 2 3 2 1 2 2 0 2 3 2 3 2 3 5 8 8 7 6 6 5 6 7 7 8 6 4 8 11 7 5 8 10 12 13 15 18 21 24 24 25 26 27 28
9 4 5 9 5 2 7 11 10 8 9 8 8 8 5 6 8 5 3 5 6 4 8 11 10 7 8 8 9 10 10 7 5 5 6 5 3 3 3 3 3 2 2 2 1 1 2 1 1 3 1 1 3 4 3 2 1 4 9 13 9 3 3 6 8 6 3 6 9 8 8 12 12 6 5 7 9 10 12 16 19 21 22 24 25 26 27 28
11 8 6 6 4 3 5 8 8 6 5 7 9 8 7 9 10 6 3 7 9 5 6 11 10 5 6 8 11 13 11 9 9 10 12 12 9 8 6 5 7 6 2 3 2 1 2 1 2 3 1 3 1 3 3 3 2 5 14 17 9 4 6 7 5 5 6 8 10 8 7 11 9 2 4 6 8 11 15 19 21 22 22 23 25 26 28 29
15 11 8 5 2 4 6 4 6 7 6 8 10 9 9 9 8 9 5 5 6 7 7 8 8 5 4 8 11 14 14 11 11 10 11 11 9 8 7 7 9 8 5 5 2 0 3 3 2 2 3 2 1 2 3 4 3 7 12 10 8 10 11 6 3 7 10 8 6 7 8 9 5 1 2 5 7 11 16 19 20 21 21 22 23 25 25 26
Wind_Direction
232 230 228 226 225 226 223 223 223 221 222 224 226 225 227 230 230 233 232 236 240 247 259 268 277 286 292 298 302 305 310 313 313 315 311 303 290 251 186 155 117 32 15 16 5 256 229 226 183 170 214 160 153 162 120 115 104 61 85 97 246 200 201 191 188 195 174 269 277 313 329 284 278 304 304 308 292 285 288 286 286 285 289 296 301 303 301 302
233 233 233 232 230 231 230 230 230 229 230 231 232 232 235 236 238 241 243 247 249 253 261 268 275 282 289 296 301 305 309 312 315 316 315 316 141 140 136 122 60 13 4 354 343 256 210 195 178 180 194 169 130 142 164 199 138 105 103 121 234 202 211 203 193 209 210 275 281 297 310 264 263 293 302 296 284 292 298 296 300 301 308 320 322 318 311 307
233 233 234 233 232 231 231 232 233 233 234 235 236 237 239 241 242 246 248 251 255 258 263 269 275 279 287 292 298 304 309 314 316 313 114 115 120 122 113 66 4 346 341 335 316 248 213 199 193 196 191 177 164 164 180 201 181 156 110 164 245 216 231 245 231 245 261 276 282 297 307 278 288 298 285 260 289 299 289 291 300 306 318 330 332 327 319 313
234 235 235 235 234 232 232 233 233 234 235 237 239 239 241 243 246 250 253 257 261 264 266 270 274 278 283 289 296 301 312 320 310 177 147 128 125 129 353 333 330 325 324 320 285 243 224 211 212 202 177 196 263 224 222 209 200 178 153 192 232 187 231 265 262 277 285 280 268 288 306 299 306 306 272 265 310 299 282 289 296 303 315 325 329 329 324 320
237 238 238 238 238 236 237 237 237 238 239 242 243 244 247 249 252 255 258 262 265 267 268 271 273 277 281 286 293 300 319 338 213 162 174 192 213 274 299 312 312 311 317 309 260 232 226 215 211 189 180 228 189 195 247 207 184 175 213 237 244 186 227 278 285 294 294 291 282 294 304 302 309 302 278 265 248 266 284 297 301 304 312 318 323 328 328 324
240 240 240 241 241 240 241 242 243 244 246 248 250 251 253 254 256 258 260 263 266 268 269 270 273 276 281 285 291 297 309 306 212 201 233 241 261 280 289 298 297 300 308 298 247 223 223 214 208 191 179 240 186 196 242 193 189 213 259 257 259 246 249 278 288 291 290 291 289 292 294 299 304 296 287 262 250 271 289 299 303 307 311 316 325 329 329 330
240 240 241 241 242 242 243 245 247 248 250 252 254 256 256 257 258 259 261 263 264 267 269 271 274 277 282 285 288 293 279 264 265 263 261 258 264 273 280 284 281 290 298 285 241 220 223 217 212 199 166 32 211 210 237 210 199 208 269 267 265 267 265 279 289 290 289 286 286 288 288 291 285 286 297 278 273 283 296 305 307 313 319 325 334 336 340 347
239 240 240 241 242 243 244 246 248 250 252 254 256 257 258 259 260 261 263 264 266 268 270 272 275 277 282 285 287 289 273 274 281 268 260 257 259 266 268 269 269 281 288 265 236 224 230 223 217 210 184 209 212 212 234 271 221 194 244 268 278 286 287 293 295 292 290 287 290 291 279 277 276 278 285 282 287 298 305 308 311 321 330 333 339 344 354 354
239 240 240 241 241 242 244 246 248 250 252 254 256 258 260 262 263 265 266 268 270 271 273 274 276 278 280 279 282 284 277 282 285 258 253 254 256 259 258 258 260 273 273 243 227 221 228 227 223 221 224 229 213 221 172 168 251 205 226 270 294 296 297 300 294 289 289 288 291 287 276 281 285 288 275 278 294 324 307 305 318 327 330 329 332 336 339 333
242 242 241 242 242 243 245 247 250 252 254 256 259 262 264 266 268 270 271 273 274 273 275 274 275 276 275 273 259 257 277 281 272 255 250 252 257 257 251 248 254 262 253 237 231 229 229 229 228 222 232 236 198 218 184 162 260 250 274 282 280 289 295 295 287 287 290 289 281 258 268 283 283 85 267 278 298 321 315 341 351 345 338 321 313 318 325 324
244 245 245 245 245 246 248 250 252 254 257 260 263 265 267 270 271 272 273 274 273 273 273 272 274 272 271 266 234 231 270 275 267 266 262 263 260 255 253 248 248 243 235 241 248 248 239 231 224 210 220 219 186 227 230 227 285 312 329 305 289 304 302 288 279 285 291 293 274 232 256 288 266 167 256 277 298 317 337 13 25 26 23 287 285 304 315 320
246 247 249 249 250 251 252 254 255 257 260 262 264 266 268 269 270 271 271 271 271 271 271 271 271 269 269 263 247 251 271 272 270 271 269 270 262 253 252 246 237 228 233 252 265 266 251 234 224 218 225 204 179 272 242 269 320 314 339 316 303 338 317 287 275 278 273 265 269 208 279 305 227 221 260 288 311 330 355 25 38 48 89 210 241 284 298 311
248 250 253 254 255 255 256 257 258 259 260 261 263 264 266 267 268 269 268 268 269 268 270 270 269 270 266 260 261 267 272 267 266 267 265 265 260 249 240 234 231 235 249 264 269 263 247 233 223 225 234 217 196 228 266 312 326 304 342 345 313 353 320 289 276 189 347 270 240 152 283 291 261 251 273 323 347 350 2 25 32 33 153 180 192 235 269 294
250 252 254 256 257 257 257 257 258 258 259 260 261 263 264 265 266 268 268 269 269 268 268 267 267 267 259 259 269 272 266 263 260 258 258 258 256 248 239 237 240 248 257 260 255 245 234 226 220 222 229 227 222 230 299 336 345 301 329 14 338 341 278 294 337 267 329 312 204 158 212 266 273 282 300 350 354 349 355 24 46 55 148 145 149 148 148 43
250 250 251 252 254 254 255 256 257 257 258 259 260 262 263 264 265 266 266 266 266 266 265 263 264 262 260 265 269 268 263 260 257 255 254 254 253 250 247 246 246 247 246 239 233 227 219 208 208 212 214 221 218 129 341 346 3 18 312 305 328 199 264 306 317 226 218 314 149 144 212 267 273 290 311 346 344 340 350 39 93 126 129 128 130 121 107 82
245 244 244 247 248 250 251 252 253 254 255 256 257 259 261 263 262 262 263 262 262 262 262 263 260 251 260 273 268 261 261 257 255 252 247 247 248 248 248 245 237 233 230 226 222 218 208 201 207 212 207 199 141 87 41 354 333 355 202 250 273 221 269 316 328 101 139 66 51 134 233 278 284 289 305 334 341 337 352 79 109 109 107 108 107 103 100 93
240 240 242 243 243 245 246 247 248 249 251 252 254 256 257 258 259 259 258 256 257 257 257 256 251 250 256 263 261 256 257 252 248 244 240 241 239 237 234 227 222 221 223 221 219 212 201 197 197 211 221 95 105 98 59 318 283 308 353 226 249 226 232 294 307 355 57 69 353 329 233 258 272 283 303 335 347 346 54 102 100 92 89 90 90 91 89 85
239 239 240 240 240 241 241 242 243 244 246 247 249 251 252 254 256 257 256 256 252 251 259 235 213 268 261 248 247 251 252 243 239 236 233 228 219 214 209 214 220 212 202 198 205 191 187 185 154 184 15 60 119 118 162 232 219 221 217 219 256 247 233 253 267 303 11 26 313 292 267 262 270 284 320 353 4 40 92 100 93 88 86 84 84 83 81 80
236 236 237 237 236 235 235 236 236 238 239 241 243 242 247 255 258 259 255 246 230 219 249 218 195 197 251 244 241 241 241 235 235 231 224 215 202 197 193 200 201 185 166 157 194 177 166 124 91 183 255 189 185 173 199 217 199 199 209 198 214 241 249 242 248 267 327 348 286 258 259 264 271 299 344 358 31 81 95 97 90 87 86 84 84 82 81 80
232 232 233 233 230 228 228 228 229 230 230 232 233 232 242 249 261 267 249 239 236 236 246 236 222 230 243 258 240 222 237 242 237 226 217 210 198 188 185 183 173 174 167 157 193 174 155 156 172 217 222 204 204 205 212 219 156 157 182 210 217 234 264 261 260 268 196 254 270 253 257 267 271 329 350 354 48 74 82 89 87 86 86 85 85 84 83 82
227 227 227 226 222 220 219 220 222 222 221 221 221 222 228 222 223 271 260 255 255 251 250 249 247 247 249 251 241 234 250 248 233 221 214 207 193 183 187 177 150 187 221 140 131 114 153 188 220 227 225 211 207 210 224 258 244 189 211 253 264 242 260 262 257 276 211 187 263 301 296 274 279 20 6 21 56 53 61 85 87 88 88 86 86 85 87 90
223 221 219 217 213 211 210 212 215 217 215 214 216 217 223 227 239 266 283 281 272 261 253 250 249 249 249 247 243 243 249 245 227 216 209 199 191 191 187 168 155 194 172 119 107 83 188 219 237 237 232 201 190 172 191 228 224 217 197 238 267 249 281 283 278 313 7 180 260 321 297 278 306 64 33 46 67 61 69 88 90 94 92 87 87 86 92 97
222 217 213 211 206 203 203 207 211 212 212 214 219 220 228 241 252 272 285 285 279 269 257 250 247 246 246 246 245 242 238 235 231 219 210 200 193 196 184 162 167 161 144 178 174 170 208 237 242 238 207 172 242 169 142 171 198 190 170 177 251 250 291 280 290 331 356 205 265 287 283 283 315 100 58 59 78 77 78 86 86 89 88 85 90 90 93 96
220 213 210 207 202 200 201 206 209 209 212 214 219 222 229 245 252 281 289 277 282 273 259 251 246 245 245 245 243 237 230 229 231 223 215 205 192 190 190 177 161 151 192 204 193 197 226 243 238 194 152 179 224 205 150 163 227 235 205 198 233 239 215 229 280 328 336 360 4 358 313 294 280 203 91 78 83 75 73 79 78 80 87 92 95 93 93 95
216 210 206 203 203 202 202 208 208 209 215 215 218 222 227 243 253 292 312 298 284 271 262 246 238 242 240 238 237 227 224 227 228 225 216 207 196 182 183 183 171 197 211 196 198 223 248 249 207 110 122 169 196 225 189 171 205 279 232 211 220 227 223 233 305 358 359 336 336 27 347 292 313 300 197 140 77 63 63 68 71 77 90 97 95 93 96 97
216 210 205 203 204 204 204 208 208 210 216 217 216 214 218 223 240 300 14 11 288 242 216 209 209 221 220 221 212 192 202 234 220 216 207 203 201 188 164 176 170 213 199 171 192 232 246 242 200 152 146 144 178 248 225 169 150 279 246 209 211 210 202 203 161 85 273 259 294 45 149 263 312 301 212 167 104 78 67 59 69 85 94 98 98 100 102 101
217 211 206 206 207 207 207 204 206 209 210 216 211 197 201 196 180 64 56 0 283 192 154 169 172 176 190 186 171 160 172 195 180 198 193 190 197 190 185 188 155 208 175 135 204 246 215 222 163 153 141 143 192 248 221 160 131 243 252 157 163 170 174 177 155 167 229 256 317 8 161 249 289 278 221 147 122 95 81 66 73 95 103 106 108 110 110 108
219 212 208 209 210 210 209 205 204 205 204 207 199 189 185 172 164 111 81 298 272 130 128 161 152 157 167 165 165 158 135 144 141 185 184 181 189 186 202 207 173 190 166 141 213 260 190 191 192 167 150 184 210 225 181 157 150 244 215 114 130 146 150 144 128 158 293 356 307 298 191 260 266 274 22 125 144 192 176 164 131 122 118 118 121 120 118 114
219 214 211 211 212 211 208 207 203 199 199 195 187 188 179 159 144 93 88 241 224 101 120 153 144 149 150 155 173 168 119 133 125 163 168 175 184 171 187 203 170 157 145 144 210 255 127 211 206 157 159 208 208 38 166 167 194 209 136 92 69 72 80 79 102 115 32 4 251 240 187 211 270 282 11 135 230 223 183 180 171 147 136 132 131 129 124 119
218 216 213 209 210 210 209 210 205 195 193 193 188 184 173 158 126 104 210 228 159 100 123 149 164 163 143 140 177 208 137 118 114 140 148 162 174 154 129 163 138 122 40 6 231 254 301 255 213 161 181 191 138 72 110 146 144 131 104 65 40 32 41 44 61 89 52 275 246 229 199 184 268 287 208 178 258 210 164 161 178 163 152 149 142 136 130 124
216 218 215 211 212 212 212 216 210 198 196 196 195 184 169 155 114 184 216 221 73 118 119 137 185 155 143 137 161 188 101 50 139 144 141 133 155 142 117 135 104 87 359 329 286 302 329 317 267 220 185 140 104 71 47 67 97 107 87 70 53 341 12 26 358 48 164 252 268 262 208 171 227 266 229 246 298 250 178 170 175 170 163 159 152 144 136 129
213 214 213 214 218 216 219 224 217 204 203 203 200 189 168 155 211 206 220 32 86 189 159 166 194 156 152 119 136 167 128 139 177 149 142 125 150 176 161 166 158 92 335 257 255 336 309 243 272 309 206 161 114 72 29 16 44 88 98 94 87 312 351 349 303 308 229 252 283 288 139 173 236 239 237 294 309 307 270 192 171 166 165 164 158 150 143 137
215 216 215 215 218 221 224 228 223 209 206 208 204 188 153 194 220 193 190 200 201 191 131 135 127 134 144 133 176 179 139 177 193 161 140 111 139 219 256 203 160 133 194 208 207 335 297 296 299 101 265 201 159 140 177 260 116 143 146 131 140 164 86 279 271 278 269 272 295 274 237 268 267 271 350 287 304 315 280 184 169 164 163 163 159 155 149 145
219 222 223 218 219 224 226 227 225 216 210 209 206 183 157 213 223 153 179 201 257 21 51 101 111 118 141 166 204 173 144 204 175 142 110 112 134 223 249 228 180 140 110 140 173 178 208 301 224 180 229 187 177 177 160 142 143 174 156 135 150 158 166 223 225 216 257 285 306 286 254 206 218 247 272 276 345 28 120 154 158 160 163 162 160 159 156 152
223 224 226 225 224 224 225 226 226 224 217 207 197 185 204 212 211 139 185 196 162 57 18 57 110 121 170 224 223 178 177 227 160 129 131 159 172 193 199 208 186 156 135 158 219 166 162 260 253 262 198 156 174 185 130 111 126 211 121 111 170 183 158 183 201 177 188 290 293 241 230 221 182 184 315 37 61 73 112 138 149 157 164 165 165 165 163 159
229 227 227 231 229 225 226 227 225 225 216 200 181 218 217 209 186 181 178 148 145 138 92 48 97 124 194 224 231 207 199 124 148 146 178 187 206 206 211 225 185 175 170 160 201 164 132 269 281 326 357 143 161 172 133 124 180 157 124 175 218 176 123 115 251 34 72 261 270 203 239 288 333 33 351 47 67 77 110 138 152 160 167 172 174 172 169 165
227 226 227 229 228 227 227 226 224 219 208 191 195 226 200 127 197 195 177 122 124 119 108 130 171 150 186 204 218 208 183 89 149 156 188 210 227 191 205 255 189 184 194 185 219 200 155 266 279 194 195 289 101 124 83 48 132 125 180 210 194 124 96 102 233 353 33 244 271 227 217 265 266 263 338 39 116 156 166 165 163 168 175 180 180 176 173 169
219 217 222 225 225 225 223 222 218 208 196 186 220 223 177 152 195 162 124 126 112 111 125 188 206 136 166 199 226 193 170 173 168 161 182 218 242 168 161 227 193 192 203 191 212 242 142 258 286 289 168 295 48 102 71 7 86 129 177 180 116 144 170 100 158 227 243 244 284 304 255 239 214 208 214 207 199 191 191 189 183 186 189 188 185 181 178 175
201 197 206 212 211 212 210 211 206 195 188 194 218 215 163 165 203 170 145 111 87 124 156 196 195 133 169 179 186 186 178 176 169 172 183 185 221 183 148 183 186 197 205 180 175 235 127 204 279 325 348 322 30 93 177 250 356 83 106 92 72 156 171 150 153 171 185 232 279 301 308 270 231 203 188 202 197 179 180 192 199 198 193 191 188 184 182 179
176 172 188 190 183 185 186 188 191 188 191 220 201 188 107 171 235 233 211 193 89 124 191 210 160 166 184 170 179 192 167 159 166 179 203 182 206 209 162 161 149 97 173 169 169 125 102 190 253 310 335 154 174 216 194 184 175 141 147 191 229 147 135 210 215 131 136 173 223 276 287 270 248 201 186 199 189 178 186 192 195 196 194 193 191 186 183 182
170 158 185 177 172 173 170 169 180 188 210 232 158 114 148 192 276 250 200 189 177 146 138 168 181 184 173 166 197 185 131 143 171 184 220 207 210 227 191 121 141 138 102 122 172 207 166 174 206 234 237 191 226 251 213 196 189 174 186 198 191 170 135 216 250 198 131 168 181 210 266 271 260 202 185 189 179 189 198 194 186 192 195 194 192 188 186 185
177 161 176 174 173 173 168 165 183 186 200 209 162 153 169 170 233 223 166 166 185 172 112 128 207 186 169 185 193 153 141 165 187 191 220 222 211 215 165 95 118 145 123 128 199 204 136 131 186 228 218 214 249 278 237 218 189 144 190 196 169 158 140 182 232 225 155 219 173 150 260 275 281 257 229 229 224 206 199 190 180 189 196 195 193 193 191 189
191 187 185 180 178 177 177 194 213 186 233 230 164 176 181 171 190 215 189 181 182 145 145 203 218 208 223 197 168 174 183 194 198 195 218 232 217 210 125 136 130 111 121 149 213 146 112 125 207 253 300 322 304 318 334 303 111 123 234 165 151 173 157 187 216 180 166 225 168 141 249 248 278 304 297 242 223 199 191 188 185 190 195 196 196 197 195 194
184 181 185 185 182 182 189 222 194 203 231 219 204 213 198 192 197 194 181 186 187 163 168 197 200 210 220 178 175 202 195 197 215 208 207 211 203 141 122 166 181 171 177 204 179 162 163 157 187 226 275 318 328 323 308 309 154 182 239 237 175 131 107 114 160 137 210 209 164 193 246 236 257 322 15 67 120 167 188 193 191 191 193 196 199 200 200 199
163 164 181 187 185 189 211 247 199 211 216 207 224 222 205 219 216 204 195 191 191 172 149 221 204 193 194 169 181 211 207 216 231 218 202 219 249 211 151 200 206 211 237 219 144 140 156 169 161 196 229 235 227 218 222 236 213 180 223 250 221 152 139 145 147 180 227 196 163 212 248 255 303 325 23 37 120 163 197 201 200 199 197 199 203 202 203 204
160 163 166 180 192 208 236 246 223 227 211 202 221 217 211 230 228 202 198 203 203 181 122 285 193 160 189 185 189 220 225 225 225 201 184 205 251 274 48 302 203 208 229 178 147 129 112 190 192 205 229 237 225 221 213 141 153 196 225 222 211 188 170 159 158 200 211 167 206 235 228 288 283 238 202 247 210 196 213 207 205 207 206 208 209 207 207 209
161 184 174 160 197 227 244 241 220 214 189 192 204 217 211 217 228 200 197 202 202 190 188 248 180 178 205 183 188 222 216 212 218 205 180 191 242 279 291 40 167 185 177 161 161 142 108 217 210 209 231 242 210 203 192 151 192 201 210 224 218 187 170 183 209 211 156 158 244 238 147 184 262 246 202 218 219 216 228 217 210 211 213 216 215 212 214 215
174 200 183 172 178 222 225 220 209 204 205 200 205 3 212 212 215 204 197 198 192 190 196 234 205 204 201 175 181 215 200 205 218 196 162 158 180 238 281 264 188 185 156 150 165 138 138 224 213 188 220 238 184 178 132 117 222 201 204 228 225 202 191 198 217 206 175 211 254 250 155 203 253 251 192 202 210 212 223 223 218 217 218 221 220 220 222 222
191 206 187 185 191 224 211 206 197 201 209 201 209 244 218 212 217 207 170 127 224 200 196 217 223 206 197 181 178 202 202 199 209 192 171 186 184 167 189 248 223 200 155 137 161 133 147 216 183 148 198 324 344 319 58 79 303 278 255 245 232 218 206 202 220 225 218 242 268 279 261 249 255 244 205 215 218 219 230 233 228 228 228 228 227 228 231 232
196 202 183 188 207 243 204 193 181 198 210 198 216 231 208 204 217 211 171 189 215 209 192 216 228 193 188 196 194 216 221 192 192 205 175 178 205 190 197 210 172 163 152 146 185 187 160 181 86 103 115 319 322 338 28 60 294 281 269 260 252 246 237 228 230 229 233 257 259 262 268 265 262 238 208 232 226 217 232 238 237 240 239 236 235 238 241 243
202 200 177 175 201 186 178 181 174 189 208 200 213 216 201 214 210 184 199 223 220 211 189 212 222 189 193 213 209 225 229 202 215 225 196 193 207 197 201 196 156 150 168 171 184 208 172 173 55 83 177 251 328 46 57 51 19 284 266 260 251 244 251 242 220 198 206 230 245 250 251 258 263 187 167 227 220 212 228 236 240 245 245 242 243 245 248 248
207 207 189 172 194 186 174 166 166 187 208 210 212 210 208 216 188 164 209 251 220 215 214 208 202 181 206 224 222 237 245 229 230 227 198 194 190 170 173 173 158 158 170 167 149 110 157 150 114 138 201 226 86 99 103 65 11 269 260 244 213 223 242 250 251 230 216 202 216 233 237 250 269 93 194 239 222 218 234 242 247 253 253 251 250 250 250 250